Home > Weather > Tehran > Past weeks

Flag for Iran Weather for the Past 2 Weeks in Tehran, Iran

Now
79 °F

Partly sunny.


Feels Like: 78 °F
Forecast: 62 / 82 °F
Wind: 9 mph from Southwest

Location: Tehran-Mehrabad

Current Time: May 3, 2016 at 3:11:27 PM

Latest Report: May 3, 2016 at 2:30 PM


Visibility: N/A

Pressure: 29.98 "Hg (26.20 "Hg at 1179m altitude)

Humidity: 21%

Dew Point: 36 °F

Location of TehranLocation

Historic Weather in Tehran — Graph

°F

Tehran Temperature Yesterday

Maximum temperature yesterday: 82 °F (at 3:30 PM)
Minimum temperature yesterday: 63 °F (at 5:00 AM)
Average temperature yesterday: 73 °F

High & Low Weather Summary for the Past Weeks

 TemperatureHumidityPressure
High90 °F (Apr 28, 4:00 PM)63% (Apr 18, 11:00 PM)30.21 "Hg (Apr 18, 11:00 PM)
Low48 °F (Apr 20, 5:00 AM)6% (Apr 22, 2:00 PM)29.86 "Hg (Apr 24, 5:30 PM)
Average71 °F25%30.00 "Hg
* Reported Apr 18 1:30 PM — May 3 1:30 PM, Tehran, Weather by CustomWeather, © 2016

Note: Actual official high and low records may vary slightly from our data, if they occured in-between our weather recording intervals... More about our weather records

Advertising

Tehran Weather History for the Previous 24 Hours

Scroll right to see more
 ConditionsComfort  
Time TempWeatherWind HumidityBarometerVisibility
1:30 PM
Tue, May 3
75 °FScattered clouds.7 mph27%29.98 "HgN/A
1:00 PM75 °FScattered clouds.9 mph25%30.01 "HgN/A
12:30 PM75 °FScattered clouds.12 mph27%30.01 "HgN/A
12:00 PM73 °FScattered clouds.7 mph31%30.04 "HgN/A
11:30 AM73 °FSunny.7 mph31%30.04 "Hg10 mi
11:00 AM72 °FScattered clouds.9 mph33%30.04 "HgN/A
10:30 AM70 °FScattered clouds.5 mph35%30.04 "HgN/A
10:00 AM70 °FSunny.5 mph35%30.04 "Hg10 mi
9:30 AM68 °FSunny.9 mph40%30.04 "Hg10 mi
9:00 AM68 °FSunny.7 mph38%30.04 "Hg10 mi
8:00 AM64 °FSunny.7 mph46%30.01 "Hg10 mi
7:00 AM64 °FClear.5 mph43%29.98 "Hg10 mi
5:30 AM61 °FClear.No wind48%29.95 "Hg10 mi
5:00 AM61 °FClear.7 mph48%29.95 "Hg10 mi
4:30 AM63 °FClear.12 mph45%29.95 "Hg10 mi
4:00 AM63 °FClear.9 mph49%29.92 "Hg10 mi
3:30 AM63 °FClear.9 mph49%29.92 "Hg10 mi
2:30 AM63 °FClear.9 mph49%29.92 "Hg10 mi
2:00 AM63 °FClear.5 mph49%29.92 "Hg10 mi
12:30 AM68 °FClear.12 mph30%29.95 "Hg10 mi
12:00 AM66 °FPassing clouds.16 mph37%29.95 "HgN/A
11:30 PM
Mon, May 2
72 °FPassing clouds.12 mph25%29.95 "HgN/A
11:00 PM72 °FPassing clouds.18 mph25%29.95 "HgN/A
10:30 PM72 °FPassing clouds.18 mph25%29.95 "HgN/A
10:00 PM73 °FPassing clouds.21 mph25%29.95 "HgN/A
9:30 PM73 °FPassing clouds.14 mph25%29.95 "HgN/A
9:00 PM73 °FScattered clouds.16 mph25%29.95 "HgN/A
8:30 PM72 °FScattered clouds.23 mph29%29.95 "HgN/A
8:00 PM73 °FScattered clouds.25 mph27%29.92 "Hg5 mi
7:30 PM77 °FBroken clouds.21 mph22%29.92 "HgN/A
7:00 PM77 °FMore clouds than sun.14 mph18%29.89 "HgN/A
6:30 PM79 °FMore clouds than sun.21 mph15%29.89 "HgN/A
6:00 PM79 °FOvercast.16 mph15%29.89 "HgN/A
5:30 PM81 °FBroken clouds.18 mph14%29.89 "HgN/A
5:00 PM82 °FPartly sunny.25 mph13%29.89 "HgN/A
4:30 PM82 °FPartly sunny.21 mph13%29.89 "HgN/A
4:00 PM81 °FScattered clouds.21 mph14%29.89 "HgN/A
3:30 PM82 °FScattered clouds.21 mph13%29.89 "HgN/A
3:00 PM81 °FPassing clouds.18 mph15%29.92 "HgN/A
Weather by CustomWeather, © 2016

See weather overviewHow to use our weather pages